DELTA 1 DEB, 40752

Orbit data source: Space-Track

DELTA 1 DEB, 40752 is space debris in LEO originally from a launch on Thu, 29 Jul 1976 UTC launched from the Air Force Western Test Range (AFWTR). Debris objects in space refer to the collection of defunct objects orbiting the Earth. Examples of debris include non-operational satellites, rocket bodies, and fragments generated from explosions, collisions, or faulty payload assembly.

Loading next visibility...
Identifier
40752, 1976-077FV
Orbit
LEO
Country
Flag of USUS
Related business
Manufacturer
Unknown
Mission
Spacecraft
Bus & Motor
Unknown
Mass
Unknown
Launch date (UTC)
1976-07-29 (49 years ago)
Launch vehicle
Unknown
Launch site
Air Force Western Test Range (AFWTR)
Object type
Payload
Rocket body
Debris
Shape & HBR
Unknown shape, 0.1 m
Radar Cross Section
Small (<0.1 m²)

Expand to show TLE details & history
Last TLE update: 2 days ago

TLE from 2 days ago
0 DELTA 1 DEB
1 40752U 76077FV  25345.23749626 -.00000104  00000-0 -13035-2 0  9994
2 40752 102.2393  86.5475 0563874  47.3630 343.4966 11.37636144500625
Epoch: 2025-12-11T05:41Z
TLE epoch observation values (Epoch: 2025-12-11T05:41:59.676Z)
Latitude
28.21912°
Longitude
-85.79924°
Altitude
1,526.578 km
Speed
7.293 km/s
True Right ascension
05h 19m 34s
True Declination
28° 05' 24"
Sunlit
Object was in full shadow at epoch
Visualization orbit readout
Latitude
Unknown
Longitude
Unknown
Altitude
Unknown
Speed
Unknown
Apparent Right ascension
Unknown
Apparent Declination
Unknown
Sunlit
N/A
Visualization observer readout
Local Sidereal Time
22:41:10
Azimuth
Unknown
Elevation
Unknown
Doppler factor
Unknown
Orbital elements
Apogee altitude
2,441.225 km
Perigee altitude
1,499.713 km
Semi-major axis
8,348.606 km
Eccentricity
0.05639
Inclination
102.2393°
RAAN
86.5475°
Arg. of periapsis
47.363°
True anomaly
341.52884°
Mean anomaly
343.4966°
Eccentric anomaly
342.52652°
Mean motion
2.84526 °/min
Orbital period
126.53 mins
BSTAR
-0.0013035
Loading maneuver chart data...
Computing Atmospheric mass density...
Loading historical data...
Loading historical data...
Loading historical data...
Loading historical data...
Loading historical data...
Loading historical data...
Loading historical data...

Documentation

Showing up to 5 results
|